Biggs, California, United States (95917)
Lat: 39.41N, Lon: 121.71W
Wx Zone: CAZ016
Local Info
Past Weather Observations for Sunday, September 14, 2014

NOTE: This archive is for the closest National Weather Service station to Biggs. Information may differ from the station used for current weather conditions.

Click here for Long-term Archive

Time Weather Temperature Dewpoint Humidity Pressure Winds Precip Visibility
23:53
Clear
82°F / 28°C 39°F / 4°C 21% 29.74 in
(1007 mb)
E 10.4 mph
(E 17 kph)
- 10SM
22:53
Clear
82°F / 28°C 41°F / 5°C 23% 29.74 in
(1007 mb)
ENE 10.4 mph
(ENE 17 kph)
- 10SM
21:53
Clear
82°F / 28°C 41°F / 5°C 23% 29.74 in
(1007 mb)
E 6.9 mph
(E 11 kph)
- 10SM
20:53
Clear
84°F / 29°C 41°F / 5°C 22% 29.74 in
(1007 mb)
E 8.1 mph
(E 13 kph)
- 10SM
19:53
Clear
88°F / 31°C 43°F / 6°C 21% 29.71 in
(1006 mb)
E 5.8 mph
(E 9 kph)
- 10SM
18:53
Clear
90°F / 32°C 48°F / 9°C 24% 29.71 in
(1006 mb)
S 4.6 mph
(S 7 kph)
- 10SM
17:53
Clear
93°F / 34°C 48°F / 9°C 21% 29.71 in
(1006 mb)
SW 3.5 mph
(SW 6 kph)
- 10SM
16:53
Clear
100°F / 38°C 36°F / 2°C 10% 29.71 in
(1006 mb)
SW 4.6 mph
(SW 7 kph)
- 10SM
15:53
Clear
100°F / 38°C 37°F / 3°C 11% 29.71 in
(1006 mb)
SE 4.6 mph
(SE 7 kph)
- 10SM
14:53
Clear
100°F / 38°C 37°F / 3°C 11% 29.74 in
(1007 mb)
Variable 4.6 mph
(Variable 7 kph)
- 10SM
13:53
Clear
99°F / 37°C 45°F / 7°C 16% 29.77 in
(1008 mb)
Variable 3.5 mph
(Variable 6 kph)
- 10SM
12:53
Clear
97°F / 36°C 45°F / 7°C 17% 29.77 in
(1008 mb)
WNW 3.5 mph
(WNW 6 kph)
- 10SM
11:53
Clear
91°F / 33°C 50°F / 10°C 24% 29.8 in
(1009 mb)
Calm - 10SM
10:53
Clear
90°F / 32°C 45°F / 7°C 21% 29.83 in
(1010 mb)
Calm - 10SM
09:53
Clear
88°F / 31°C 45°F / 7°C 22% 29.83 in
(1010 mb)
Calm - 10SM
08:53
Clear
82°F / 28°C 48°F / 9°C 30% 29.83 in
(1010 mb)
Calm - 10SM
07:53
Clear
81°F / 27°C 46°F / 8°C 30% 29.83 in
(1010 mb)
SW 3.5 mph
(SW 6 kph)
- 10SM
06:53
Clear
70°F / 21°C 50°F / 10°C 50% 29.83 in
(1010 mb)
Calm - 10SM
05:53
Clear
68°F / 20°C 48°F / 9°C 49% 29.8 in
(1009 mb)
E 3.5 mph
(E 6 kph)
- 10SM
04:53
Clear
68°F / 20°C 52°F / 11°C 56% 29.8 in
(1009 mb)
Calm - 10SM
03:53
Clear
70°F / 21°C 48°F / 9°C 46% 29.8 in
(1009 mb)
NW 3.5 mph
(NW 6 kph)
- 10SM
02:53
Clear
73°F / 23°C 45°F / 7°C 36% 29.77 in
(1008 mb)
ENE 3.5 mph
(ENE 6 kph)
- 10SM
01:53
Clear
79°F / 26°C 41°F / 5°C 26% 29.77 in
(1008 mb)
E 3.5 mph
(E 6 kph)
- 10SM
00:53
Clear
81°F / 27°C 41°F / 5°C 24% 29.77 in
(1008 mb)
E 8.1 mph
(E 13 kph)
- 10SM
Time Weather Temperature Dewpoint Humidity Pressure Winds Precip Visibility


Weather for websites

WeatherForYou.com, LLC is not responsible for any damages or problems caused by this service. Current weather conditions are obtained from the closest station including government and personal stations which may have varying degrees of accuracy. Weather forecasts are derived from the NOAA NDFD. Like all things, this site belongs to Jesus Christ... He just trusts me to maintain it. If you have any questions or comments email webmaster@weatherforyou.com

Copyright © 2014, WeatherForYou.com LLC. All rights reserved.